Theta_e
335 333 326 320 319 317 316 312 298 303 300 296 298 300 298 303 303 304 303 310 314 322 321 321 316 321 321 319 319 323 328 318 321 315 314 331 345 348 348 349 350 350 352 354 357 357 357 354 354 354 354 354 353 352 352 352 354 354 354 355 354 354 353 353 352 351 351 350 351 350 350 349 349 349 349 348 348 349 349 349 350 350 350 349 348 348 347 347 347 346 345 345 344 346 346 345 346
322 319 318 318 318 315 308 312 301 300 300 297 299 301 301 303 303 302 304 305 315 324 325 327 323 325 329 327 329 327 325 334 333 332 338 342 346 346 349 350 349 349 352 354 354 359 357 356 353 354 354 353 353 353 352 352 353 354 354 354 354 353 353 352 352 351 351 351 350 350 350 350 349 349 349 349 350 349 351 349 348 349 349 349 349 348 347 347 347 345 344 345 345 345 345 345 345
315 316 315 317 317 313 313 307 297 298 296 295 299 301 304 302 302 306 311 310 322 327 329 328 328 328 327 328 322 321 323 336 336 338 337 344 339 343 348 351 351 352 353 355 356 354 357 354 353 353 354 353 353 353 352 353 353 354 354 354 354 354 353 352 352 352 351 351 350 350 350 350 350 349 349 349 349 349 349 350 348 349 349 349 347 347 346 345 345 345 345 345 345 345 345 345 345
316 317 315 316 309 311 305 304 299 298 296 297 298 305 307 306 310 315 316 323 327 328 329 326 324 330 327 322 325 331 329 332 339 338 336 339 341 345 346 349 353 352 353 353 357 356 352 353 352 354 353 354 353 352 352 352 353 354 354 354 354 354 353 353 353 352 352 351 351 350 350 350 350 350 350 349 349 349 349 349 349 348 348 348 347 346 346 345 345 345 345 344 345 345 344 344 344
315 317 318 314 311 303 304 302 301 300 295 299 297 309 311 314 314 314 320 325 325 326 327 327 326 328 334 332 331 325 330 337 338 341 339 343 346 346 347 349 350 350 351 352 355 352 356 351 352 353 354 353 352 352 352 352 352 353 353 353 353 353 353 353 353 352 352 352 352 351 351 351 350 350 350 350 350 349 348 348 349 348 347 347 346 347 348 347 346 345 345 345 345 344 345 344 343
315 316 318 315 307 313 305 299 297 297 301 302 299 308 313 317 318 320 321 322 324 326 326 327 325 324 327 332 335 332 336 329 338 340 342 343 347 347 347 346 348 348 348 351 351 356 353 348 350 351 353 352 352 352 352 352 352 353 353 353 353 354 353 353 353 353 353 352 352 351 351 350 351 350 350 350 350 350 349 349 347 346 346 346 346 345 345 345 345 346 345 346 345 345 344 344 344
314 313 313 312 309 308 300 299 299 300 302 302 302 309 313 317 318 318 318 319 323 325 328 326 329 330 326 331 334 338 342 342 339 341 345 346 348 347 346 345 346 348 349 350 352 352 354 347 347 348 349 351 352 352 352 352 352 352 353 353 353 353 353 353 353 353 353 352 352 351 351 351 351 350 350 350 349 349 348 348 347 346 346 346 345 345 345 345 345 345 345 346 346 345 344 343 343
318 311 309 304 302 302 298 300 300 302 301 303 308 308 311 313 310 314 317 317 317 319 325 328 330 325 328 335 326 338 342 344 344 348 348 348 347 346 345 345 344 344 347 350 352 352 354 346 346 347 348 349 350 352 352 352 352 352 353 352 353 352 353 353 353 353 353 353 352 352 352 351 351 350 349 349 349 348 348 348 347 346 346 345 345 345 345 345 345 345 345 346 345 344 344 343 341
314 312 312 305 300 302 299 299 300 304 303 304 306 309 310 309 309 310 314 318 320 322 324 326 327 321 324 329 328 337 341 346 348 348 348 347 346 345 344 343 343 344 345 347 350 352 353 349 346 346 347 349 349 350 352 352 352 352 352 352 353 352 353 353 353 353 353 353 352 351 351 351 350 349 349 349 349 348 348 348 347 347 346 345 345 344 344 344 345 345 345 345 345 345 343 342 341
310 310 303 301 302 298 297 299 298 301 301 304 305 308 308 308 307 309 310 313 317 321 322 326 326 322 328 326 329 336 340 346 347 346 347 346 346 344 342 344 345 345 345 347 349 351 350 353 348 347 347 348 349 349 350 352 352 352 352 352 352 352 353 353 352 352 352 352 352 352 351 351 350 349 349 349 349 348 348 345 347 346 346 345 345 344 344 345 345 345 344 344 344 344 342 341 341
305 307 310 301 298 296 296 298 300 302 301 304 305 307 307 308 307 307 309 310 315 318 323 324 322 324 327 327 332 343 346 346 344 343 346 345 345 343 344 345 346 347 345 347 349 349 351 351 353 349 347 348 348 348 349 350 351 352 352 352 352 352 352 353 352 352 352 352 352 352 351 351 351 350 349 349 348 347 348 346 346 345 346 345 345 344 344 345 345 344 344 344 343 343 342 341 341
304 303 303 297 297 298 298 298 299 301 302 303 303 306 308 306 306 305 307 308 311 315 320 322 320 328 324 326 329 339 344 343 344 344 345 345 344 344 345 346 347 346 347 348 347 347 349 352 353 354 349 348 347 347 347 348 348 349 350 351 351 352 351 352 352 352 352 351 352 351 351 350 350 350 350 349 347 347 347 346 345 345 344 345 345 345 344 344 344 344 344 343 343 343 342 340 340
304 305 301 298 298 300 300 298 298 299 300 302 303 305 308 306 305 306 307 308 312 313 315 322 326 325 321 324 334 340 339 342 344 344 345 345 344 343 344 346 346 346 347 348 348 348 348 349 351 353 351 348 347 345 345 344 344 345 347 349 351 350 349 350 351 351 351 351 351 351 350 350 350 349 349 349 347 346 347 347 345 345 344 345 345 345 345 344 344 344 344 344 343 342 341 340 339
304 306 302 297 302 299 298 298 300 298 299 304 305 306 307 305 307 307 308 306 308 311 318 325 325 325 325 329 330 334 338 344 344 345 345 345 344 343 344 344 345 345 346 346 348 349 350 350 352 352 352 354 351 348 342 339 339 342 343 344 342 345 346 349 350 349 347 346 349 350 350 350 349 349 349 348 347 347 347 347 346 345 344 344 345 345 345 344 344 344 344 343 343 342 340 339 338
304 307 303 300 299 299 300 297 298 298 299 304 305 305 305 308 309 308 307 306 307 313 327 328 324 321 320 320 325 330 338 343 345 345 344 344 343 344 342 343 344 344 345 346 347 347 347 351 351 352 355 354 351 353 347 343 340 340 339 340 342 343 345 346 344 346 344 344 348 348 350 349 348 347 348 347 347 347 347 347 346 344 343 343 345 345 345 345 345 344 344 343 342 341 339 339 339
308 305 303 299 297 297 299 298 300 298 301 304 305 306 305 307 312 310 310 309 314 323 323 320 330 321 324 319 328 335 341 344 346 346 343 342 342 342 341 342 342 342 343 343 344 345 345 345 349 351 353 354 355 355 354 347 342 338 338 337 338 342 343 342 341 343 346 344 344 348 348 349 347 349 347 348 346 346 347 345 347 344 343 343 343 343 345 344 344 344 343 341 340 340 339 338 339
309 306 299 298 296 297 299 299 299 297 303 304 306 306 303 304 312 313 316 314 316 319 318 326 324 326 326 330 336 339 342 346 345 344 342 341 340 339 340 341 341 341 341 341 343 344 344 344 343 344 348 351 351 353 352 352 345 342 341 337 338 341 343 341 341 340 344 345 347 346 345 349 350 351 350 346 347 349 346 347 347 347 343 343 344 344 343 344 344 343 342 341 340 339 339 339 339
306 300 298 297 299 298 300 299 301 304 302 304 305 305 304 303 312 316 316 312 315 320 321 328 328 328 335 337 340 341 343 344 344 341 339 338 339 337 337 338 339 337 339 340 341 340 341 341 341 342 344 348 351 351 348 348 351 347 344 344 343 342 341 340 346 350 346 351 343 347 350 348 347 350 349 345 348 347 347 346 346 347 346 342 342 343 343 343 343 342 341 341 340 339 338 336 337
301 300 300 297 300 301 303 303 303 302 302 304 305 305 304 305 308 316 311 309 313 318 321 325 325 329 335 337 338 339 343 343 343 341 339 338 337 336 337 337 338 337 337 339 339 338 340 340 341 341 341 344 349 350 351 350 347 348 349 345 346 344 345 348 348 349 347 347 348 346 345 343 347 345 345 347 348 344 346 346 345 347 346 344 342 344 344 343 342 341 341 340 339 338 335 337 336
303 301 297 298 302 303 303 303 303 304 305 304 304 305 304 310 312 318 312 312 318 314 318 321 324 326 330 336 337 337 340 340 341 340 338 337 337 337 337 336 336 336 337 337 338 339 340 340 339 340 341 342 344 346 351 351 350 347 348 350 350 348 349 344 346 344 344 343 342 344 346 348 345 347 343 341 343 343 345 345 344 344 342 343 344 344 343 343 342 340 339 341 340 336 336 336 335
303 300 298 300 303 300 302 304 304 305 305 304 304 304 304 310 311 314 314 312 313 314 320 322 323 327 332 334 335 336 338 339 338 339 338 337 338 339 338 338 337 338 339 338 338 338 339 340 340 340 340 341 341 343 344 349 351 348 346 347 350 349 347 347 348 348 346 347 347 349 346 348 346 348 343 346 344 344 344 345 347 345 345 344 344 343 337 340 341 339 340 338 336 336 335 336 337
303 300 302 303 303 300 303 304 304 304 304 303 304 303 302 307 311 313 315 310 309 315 322 324 326 329 332 333 334 335 336 336 337 336 336 336 337 337 339 339 340 340 340 338 338 338 339 340 339 338 340 340 342 342 341 342 347 347 347 346 347 348 347 346 346 346 347 348 349 348 348 348 347 345 346 345 344 346 344 342 342 343 344 344 341 341 336 337 335 337 341 338 336 337 336 336 336
297 301 302 303 303 301 304 304 304 304 304 303 302 304 305 304 306 314 315 313 314 320 326 326 329 332 334 336 335 335 334 334 335 334 335 335 336 336 337 338 338 337 339 338 340 339 339 339 338 338 338 339 341 339 341 341 341 341 347 347 344 345 346 345 344 344 345 347 350 349 347 346 345 345 345 344 344 346 343 342 341 343 343 342 343 343 336 336 335 335 338 338 337 336 335 335 334
301 299 302 301 303 302 304 303 304 304 303 303 305 305 303 304 304 313 314 316 314 319 323 330 333 333 335 334 335 333 333 333 334 336 334 336 337 337 337 338 338 340 339 337 340 339 340 337 339 338 338 339 341 338 340 340 341 342 342 344 347 344 344 344 343 344 346 346 348 348 348 346 345 344 345 344 344 346 344 344 343 341 340 341 343 342 336 335 334 334 336 335 335 335 333 334 332
299 298 301 301 302 303 304 305 304 304 304 305 305 302 303 304 305 310 312 316 315 318 324 331 333 333 334 334 333 333 333 334 333 335 337 336 337 339 338 338 339 339 337 340 340 337 336 338 338 336 338 338 340 339 339 339 341 342 343 342 340 342 344 345 345 347 346 345 347 347 347 346 346 344 344 345 345 346 344 343 342 342 341 340 342 341 338 337 335 335 334 334 334 334 333 333 332
300 300 302 302 302 304 305 304 304 304 305 305 303 303 304 305 307 307 313 316 317 321 326 329 331 331 332 332 333 333 333 334 333 334 335 337 337 336 336 337 338 339 339 342 340 338 335 336 335 335 337 336 338 338 339 338 338 339 340 342 346 347 343 344 346 343 347 346 345 347 347 345 345 346 344 346 344 344 342 341 342 343 343 343 342 337 335 337 336 333 334 332 329 331 330 331 331
302 302 302 302 303 303 304 302 304 304 304 304 304 303 303 305 305 305 311 317 320 321 324 329 329 330 331 332 333 334 333 333 333 335 335 335 335 335 336 339 338 338 341 339 338 336 338 334 333 334 335 340 335 333 337 338 339 338 338 341 346 344 346 347 345 346 344 345 347 348 346 344 346 346 345 346 345 344 343 342 343 344 345 345 343 337 338 336 336 334 332 329 327 329 330 330 331
303 302 302 303 303 303 303 303 302 305 303 304 305 303 304 305 304 305 310 317 320 321 324 326 328 330 331 331 331 332 333 333 332 333 332 332 332 334 337 339 339 337 338 338 337 338 339 334 332 334 337 343 341 333 338 336 337 336 339 340 341 345 348 345 345 345 345 343 345 347 346 343 341 345 344 343 345 344 344 344 344 342 341 345 343 338 336 337 337 333 334 334 330 328 331 333 334
303 302 298 301 302 301 303 302 303 304 302 304 305 302 301 302 302 307 311 315 319 320 323 325 327 330 331 332 331 331 331 333 333 332 333 335 337 338 339 339 338 337 337 339 338 341 339 340 336 337 337 344 339 335 334 336 337 337 339 339 340 342 342 343 343 344 345 346 346 346 345 343 343 337 339 344 343 342 342 342 341 341 341 337 341 340 337 337 337 333 330 331 334 332 330 332 332
303 302 300 299 299 299 302 304 303 303 302 302 303 295 299 302 303 308 312 314 317 318 320 323 326 330 331 332 331 332 333 334 334 335 336 336 338 338 337 338 339 337 335 338 343 340 341 344 343 342 341 338 339 335 337 333 336 337 338 337 339 339 338 339 342 343 343 343 343 344 342 341 340 343 339 340 343 341 341 341 339 338 340 342 343 341 336 335 334 331 328 328 329 331 330 331 331
299 301 301 298 296 296 302 303 303 301 303 303 304 297 300 301 304 308 312 314 316 315 316 321 325 328 330 331 331 332 333 335 334 334 336 336 337 337 337 340 340 338 335 338 339 339 343 343 344 342 343 339 338 337 336 335 337 334 333 335 336 338 336 336 337 344 343 343 342 342 341 340 340 339 340 341 342 341 340 341 339 340 341 342 342 341 337 335 335 335 333 330 331 330 329 331 331
301 296 294 298 296 297 301 304 304 300 302 304 303 297 300 301 303 307 310 313 315 313 316 319 323 325 328 330 331 331 332 333 331 331 335 335 336 335 337 338 341 340 339 340 339 341 340 343 343 341 341 341 339 339 339 338 336 336 335 333 336 336 333 333 334 337 337 342 342 341 336 338 341 335 339 341 343 341 339 339 341 342 340 341 341 341 341 336 334 337 337 334 329 329 330 331 332
300 297 297 295 297 297 298 302 305 304 303 303 301 297 301 300 303 307 310 312 313 313 314 319 321 323 326 326 328 328 329 329 329 329 332 334 334 334 336 337 339 340 341 340 339 341 340 342 342 341 340 339 339 340 338 337 336 335 335 334 332 334 333 332 332 335 335 336 336 339 339 340 339 341 342 341 341 342 339 338 342 340 338 338 338 340 341 341 340 335 338 335 334 332 330 329 332
296 298 296 297 295 297 296 300 304 304 303 300 302 299 300 302 303 305 309 311 312 312 313 317 321 323 325 325 326 327 328 328 326 327 330 331 330 333 335 336 338 340 341 341 341 340 339 340 341 341 340 340 339 337 336 334 334 334 332 331 332 331 333 333 332 333 333 332 335 334 336 338 341 342 342 341 340 340 340 339 334 335 334 338 338 338 337 338 340 341 338 340 337 337 334 332 334
294 296 295 295 297 297 297 297 301 303 302 300 301 300 300 301 303 304 307 310 311 312 312 315 318 321 323 323 324 325 326 327 327 328 328 330 331 330 332 334 337 338 338 339 340 340 339 339 340 341 341 340 337 337 336 336 335 333 332 332 330 330 332 332 332 331 331 333 334 334 334 335 335 335 337 340 342 339 338 338 336 333 338 338 339 337 337 336 337 338 337 338 339 340 339 337 337
296 297 296 297 296 295 296 300 303 303 301 299 299 299 300 302 302 304 306 309 310 312 315 316 318 319 322 322 322 323 324 327 329 329 329 329 329 329 330 332 335 336 336 337 337 339 338 339 339 339 339 337 336 334 331 328 327 325 326 327 326 328 329 330 332 331 332 330 332 331 333 334 332 333 334 335 336 337 338 338 338 338 338 336 336 337 337 336 336 334 335 335 336 336 338 338 338
298 298 297 296 296 298 299 300 302 304 300 299 300 301 301 301 303 304 305 308 310 312 313 314 314 315 317 319 322 323 325 326 327 328 328 328 329 329 329 330 332 334 334 335 335 336 337 335 336 335 336 336 332 329 328 325 324 324 325 325 324 326 327 330 329 331 330 329 330 329 330 330 331 331 331 331 332 333 333 334 336 335 336 336 336 337 338 338 337 336 334 335 334 333 334 337 337
298 298 296 296 296 296 300 300 302 303 302 299 301 300 300 302 304 304 306 304 305 309 311 313 313 313 315 316 319 321 325 326 324 324 326 327 326 329 328 328 330 330 331 333 333 334 335 335 335 335 335 333 331 330 328 326 326 324 324 324 324 322 322 324 326 329 328 329 328 328 328 328 329 330 330 331 330 330 331 331 332 332 333 335 336 337 338 336 336 336 334 333 334 331 331 334 335
299 298 297 296 297 298 300 301 302 303 301 299 300 298 300 303 304 305 305 304 305 308 310 311 312 312 312 313 316 320 322 324 324 323 323 324 326 327 327 327 329 331 332 331 333 333 334 334 334 336 333 332 331 331 328 326 326 328 326 324 323 323 328 329 326 325 326 324 327 326 326 327 326 328 329 329 329 328 330 330 331 331 333 334 336 337 336 335 337 335 335 334 332 332 332 334 337
298 297 297 294 298 296 294 300 303 303 301 299 300 298 299 303 305 305 307 306 307 313 312 312 312 311 312 313 314 316 319 323 324 323 322 322 324 325 326 326 327 329 330 330 330 331 332 331 334 334 333 332 331 331 327 329 329 331 332 330 329 326 324 325 325 325 324 324 324 326 327 328 327 328 327 327 328 327 329 329 330 330 331 334 336 333 333 332 334 333 335 333 332 329 326 332 334
300 300 297 296 296 297 297 298 301 303 304 303 300 298 298 301 300 302 307 307 308 307 307 308 309 309 312 316 316 317 317 320 323 325 324 323 322 323 324 326 327 327 329 329 329 330 330 330 333 333 332 331 330 330 330 331 329 328 328 329 327 325 324 322 323 322 324 324 324 326 326 328 327 326 327 327 325 326 326 328 328 330 330 330 330 329 330 331 332 334 332 331 331 330 326 329 330
298 300 300 299 299 298 298 300 298 298 297 301 298 291 291 299 300 301 304 304 304 306 306 306 307 309 308 308 311 315 319 320 321 324 325 324 323 323 324 325 325 326 327 329 330 330 330 329 333 332 330 331 329 330 331 327 324 324 322 320 317 318 319 319 319 320 321 322 321 325 326 327 326 326 326 326 326 326 326 326 328 327 329 328 328 327 327 326 326 327 330 332 331 331 327 326 328
295 297 301 300 299 300 299 298 297 292 290 298 302 290 288 298 298 300 302 303 303 306 305 305 306 307 308 308 309 310 312 316 319 321 324 325 325 323 323 324 324 324 326 329 330 330 329 330 333 331 330 330 330 330 330 326 325 323 322 320 319 318 317 319 324 324 324 322 324 325 325 328 326 327 327 327 326 326 326 326 327 326 326 327 327 326 326 326 323 324 327 326 327 328 328 327 326
294 304 301 301 299 299 299 298 297 295 299 300 299 297 290 290 297 301 302 301 302 303 305 305 305 306 306 308 308 311 311 313 315 318 320 323 325 324 323 324 324 324 327 328 329 329 328 330 331 330 329 329 329 330 329 326 324 323 322 320 319 318 319 320 322 325 326 325 324 325 326 326 327 326 326 325 326 326 326 326 326 327 325 325 324 325 325 325 326 326 327 327 326 325 326 324 323
298 302 302 300 300 300 300 298 297 298 295 291 296 297 290 290 296 301 300 298 299 301 303 304 305 306 308 308 308 309 310 311 313 314 317 320 322 325 325 325 325 325 326 327 327 328 328 331 330 331 329 329 329 330 328 326 325 324 322 321 318 319 322 321 321 323 322 325 325 325 325 325 326 327 325 324 324 324 325 325 326 325 323 322 322 322 324 325 326 326 326 326 325 324 324 324 323
301 302 302 301 301 300 300 297 296 295 292 287 293 297 289 290 296 298 299 298 298 300 302 303 305 306 307 307 309 309 309 310 311 311 314 317 321 324 327 327 325 325 327 328 327 327 328 330 329 329 328 327 329 330 328 326 326 326 322 321 320 319 319 320 320 321 323 324 324 325 324 324 324 323 323 323 321 319 320 321 320 320 320 319 318 319 320 321 322 323 324 325 326 325 324 324 322
302 301 300 299 299 299 299 297 296 294 286 290 295 295 292 286 294 297 296 299 299 302 303 305 306 306 306 308 307 308 308 309 309 309 311 313 319 323 325 325 325 326 328 326 326 325 327 329 328 327 327 326 328 328 327 326 326 327 323 322 322 321 320 320 320 321 321 322 323 324 324 323 323 321 321 322 320 320 321 321 320 320 320 319 317 317 319 317 319 320 320 321 322 322 322 323 322
301 299 297 296 296 297 295 294 296 286 284 293 294 294 294 285 291 297 300 302 302 302 302 303 304 304 306 307 307 307 308 310 310 310 310 312 314 320 324 324 324 325 326 325 325 325 326 327 327 326 326 326 328 328 327 326 326 326 325 326 323 323 322 320 320 320 322 322 322 322 323 323 322 321 320 319 321 322 321 320 320 320 319 319 317 318 319 319 319 319 319 319 319 320 320 319 320
300 298 297 290 287 288 285 289 284 285 284 292 294 294 291 289 294 298 299 300 301 303 301 302 302 303 306 306 307 308 308 310 311 311 311 312 315 319 321 322 323 324 324 324 324 324 325 325 326 325 325 325 327 327 326 327 327 327 325 327 325 325 323 321 320 321 322 320 321 321 322 321 321 320 318 319 320 322 321 321 320 318 318 319 318 317 318 318 318 318 318 319 319 318 318 318 316
297 295 293 289 285 283 280 285 287 287 291 294 293 295 288 294 297 300 300 301 301 301 303 302 303 304 306 306 308 309 310 310 312 311 312 314 317 318 320 320 321 323 324 323 323 324 324 325 326 324 324 326 327 327 327 326 327 327 327 328 327 326 325 323 321 321 322 320 321 321 322 321 321 322 320 319 321 321 321 322 321 320 319 319 318 319 319 318 319 316 317 317 317 317 318 318 317
296 299 295 292 289 286 280 284 281 283 286 290 295 289 286 288 293 300 300 301 300 301 301 304 305 305 308 308 309 309 310 311 312 314 314 315 318 320 320 321 322 323 323 323 323 323 324 323 322 323 324 326 326 326 327 326 325 327 328 328 328 328 327 324 321 322 324 321 322 322 321 322 321 322 322 321 321 322 323 322 321 320 319 319 318 318 317 318 318 317 318 318 318 317 317 317 316
298 299 298 293 289 294 286 288 288 287 287 287 288 287 293 293 299 301 301 300 300 301 302 303 304 306 307 308 308 309 310 310 312 313 316 318 319 320 321 322 322 322 323 323 323 323 323 321 323 324 324 326 326 325 325 326 326 327 329 329 329 329 327 326 324 323 324 324 323 322 321 323 322 324 324 323 322 323 322 322 321 320 319 319 319 318 317 316 317 316 316 317 316 316 317 317 316
296 295 291 294 300 296 290 288 293 287 286 284 291 289 294 299 298 299 299 299 299 300 301 302 303 305 307 307 307 309 310 310 311 311 313 317 320 320 320 320 321 322 322 322 323 323 323 323 324 324 324 326 324 325 326 326 327 327 328 329 329 329 328 327 325 326 326 326 324 323 322 323 324 324 324 325 323 323 323 323 322 321 320 319 319 318 317 317 317 317 316 316 316 316 316 315 316
296 291 295 299 300 299 292 284 286 285 282 284 289 285 289 290 286 297 297 297 297 299 300 301 303 304 304 305 307 308 308 310 312 312 312 314 317 319 320 321 321 322 322 323 323 324 324 324 324 323 322 323 323 324 325 326 326 327 328 328 328 329 329 329 328 328 328 326 324 323 323 323 324 324 326 325 325 324 323 322 322 321 321 319 318 318 317 316 317 315 316 315 315 316 315 315 314
296 295 301 293 287 286 292 288 280 281 280 283 287 290 289 290 290 294 295 296 297 298 299 300 301 302 303 305 306 308 309 309 310 311 311 311 312 316 318 319 318 320 322 323 323 324 325 326 326 325 323 322 322 322 323 325 326 325 326 326 328 328 329 329 329 329 329 326 324 323 322 323 326 324 325 325 324 323 323 322 322 321 320 319 318 318 317 317 316 315 315 314 315 315 313 313 313
299 300 296 299 295 291 287 288 289 288 282 282 283 288 285 293 295 297 296 298 298 298 299 299 300 302 303 305 305 306 308 308 308 309 310 310 310 311 313 316 318 319 321 322 322 322 321 323 324 324 325 324 322 322 324 324 324 324 325 327 328 327 327 327 329 329 327 326 324 323 323 323 324 324 324 324 323 322 323 322 321 320 320 319 318 318 317 317 317 316 315 314 314 313 312 312 311
294 294 293 295 295 298 295 295 290 287 283 283 282 282 287 294 299 299 298 299 300 299 299 300 301 302 304 304 306 306 306 307 308 309 310 310 312 312 312 314 315 316 317 319 321 322 323 323 322 322 323 323 324 324 323 322 323 322 325 326 326 327 327 327 328 329 328 327 326 325 324 324 324 323 323 323 322 322 321 322 321 320 319 319 318 318 318 317 316 315 314 314 312 312 311 311 311
295 294 292 294 291 289 285 284 294 291 287 283 283 281 290 298 302 301 300 301 300 301 300 301 301 303 304 305 306 306 306 307 308 308 309 309 310 311 312 312 313 313 312 312 314 317 319 321 321 322 321 321 322 322 323 323 323 323 324 325 325 326 327 327 327 328 328 326 326 325 326 324 324 323 322 322 321 322 322 322 320 320 319 318 318 317 317 316 315 314 314 314 313 311 310 310 310
Wind_Speed
8 6 3 4 5 5 5 6 7 6 5 8 8 5 3 1 3 4 6 2 5 4 1 1 4 8 5 4 6 3 8 3 3 5 2 4 6 12 11 15 15 15 14 14 15 15 16 14 13 13 12 13 12 11 10 11 11 10 11 11 11 12 12 13 14 14 13 13 13 13 13 13 12 11 11 12 11 11 10 11 11 11 10 10 11 11 11 10 10 9 9 8 8 8 9 10 11
4 3 5 4 5 5 5 3 6 5 6 8 7 4 4 4 5 5 2 2 6 4 2 3 6 7 3 1 3 3 6 11 11 9 7 8 10 11 13 15 14 16 13 14 14 13 14 15 14 14 13 14 13 12 11 11 10 10 11 12 12 13 13 13 13 13 13 13 13 12 12 12 11 11 11 10 8 9 8 9 10 11 11 10 11 10 10 10 10 9 9 9 8 8 9 10 10
2 4 5 5 5 7 2 5 7 7 8 8 5 3 5 5 6 2 2 2 3 4 4 5 5 6 6 2 8 9 6 7 11 10 9 11 12 11 14 14 13 15 14 13 13 13 10 14 13 14 15 15 14 14 12 11 10 10 11 11 12 13 13 13 13 13 13 13 13 12 12 12 11 11 10 9 8 7 7 7 10 10 10 10 10 11 10 10 10 10 10 9 9 9 9 10 10
4 4 5 5 5 5 6 5 8 8 8 6 5 7 2 2 2 4 3 4 5 4 5 8 8 2 5 9 5 6 8 6 7 10 9 10 9 13 14 14 14 12 11 11 11 12 12 13 13 13 15 15 16 15 14 12 11 11 10 11 12 13 12 12 12 12 13 13 14 13 12 12 11 11 10 9 8 7 7 7 8 10 10 10 9 10 10 10 11 10 10 10 9 9 9 10 10
5 4 5 6 6 6 6 5 7 6 9 6 5 8 2 2 4 4 7 5 5 3 5 4 2 4 6 7 2 2 7 9 8 6 9 10 13 12 14 15 12 12 12 13 11 13 12 16 12 13 13 15 15 16 15 14 12 11 11 11 13 13 12 12 12 12 12 12 12 12 12 11 11 11 10 9 7 7 7 7 6 8 8 9 9 8 8 8 9 11 10 10 10 10 10 10 9
5 5 4 6 4 6 5 6 7 9 6 5 7 5 5 5 7 7 6 3 4 3 1 7 3 8 6 5 5 4 3 4 7 7 10 10 14 14 14 13 13 12 12 11 13 11 14 14 11 10 12 14 13 14 14 14 13 12 11 11 11 10 11 12 12 12 12 12 11 11 11 11 11 10 10 9 9 9 9 8 8 8 8 8 8 8 9 8 8 9 10 11 11 11 11 10 10
5 6 5 6 4 4 7 8 8 5 4 2 4 2 4 5 6 2 5 6 4 2 4 3 3 8 5 5 8 6 3 5 7 9 9 14 14 14 14 12 13 13 12 11 9 14 16 15 11 10 9 12 13 14 14 14 13 13 12 11 11 10 10 10 10 11 12 12 11 11 11 10 10 10 10 9 9 9 9 9 8 9 9 8 9 8 8 9 10 10 10 12 13 13 13 11 10
3 7 5 7 5 5 8 8 7 4 4 4 3 2 4 7 2 1 3 7 7 7 6 4 4 5 7 2 1 4 5 3 8 11 15 13 14 14 13 13 12 13 12 11 10 13 18 16 15 11 10 10 12 13 13 13 13 12 12 11 11 10 9 9 9 10 10 11 11 11 11 11 10 10 10 9 9 9 9 9 9 9 9 9 9 8 8 8 10 10 12 14 15 15 14 12 10
6 7 2 7 7 5 7 7 5 0 4 3 4 1 3 2 3 4 3 1 4 1 8 6 6 8 7 6 6 5 7 8 11 13 14 14 13 15 10 12 12 12 12 11 11 12 13 14 13 12 12 10 9 11 13 13 13 12 10 10 10 9 9 8 9 9 9 9 10 10 10 10 10 11 10 9 9 9 9 10 9 10 9 10 10 9 9 9 10 11 13 14 14 15 15 13 11
5 6 5 6 5 8 8 6 7 2 5 4 4 5 3 3 5 6 5 5 5 4 5 2 4 2 9 7 8 6 7 11 13 13 13 13 13 12 12 12 12 14 12 11 11 11 11 14 13 14 12 10 11 9 11 12 12 11 10 9 9 8 9 8 8 8 8 9 9 9 9 9 10 10 10 10 9 9 8 9 9 10 10 10 10 10 10 10 11 12 12 12 13 13 14 14 10
6 6 4 7 7 8 8 6 5 4 6 5 5 3 5 5 6 7 7 7 3 7 7 4 6 7 6 8 6 4 10 12 13 14 13 13 12 12 11 11 11 11 12 12 11 11 12 11 12 12 13 12 11 9 8 9 9 10 9 9 8 8 9 8 8 8 8 8 8 9 8 9 10 10 10 10 9 8 8 8 8 10 11 10 10 10 11 11 12 12 12 12 11 11 11 12 11
6 6 5 8 8 7 3 5 1 3 4 5 5 3 3 2 3 6 8 10 8 7 7 7 4 6 7 7 6 6 10 12 12 11 12 13 12 12 11 9 11 11 12 12 11 11 11 11 11 12 14 14 12 11 9 10 7 6 8 9 8 8 7 7 8 7 7 8 7 7 8 8 9 10 10 10 10 9 8 9 8 9 10 11 10 10 11 11 11 11 11 11 11 10 10 11 11
7 3 7 7 6 5 2 5 4 3 4 6 4 7 3 4 6 7 7 9 8 10 9 6 8 9 7 6 7 10 11 12 12 11 12 11 11 11 10 10 11 11 11 11 11 11 11 10 10 10 12 14 12 11 9 6 6 5 5 6 8 8 8 8 8 8 7 7 8 8 8 9 9 9 10 10 9 8 8 9 9 10 11 12 11 11 11 11 11 11 11 11 10 8 9 10 9
8 4 5 8 0 6 5 4 2 5 6 7 4 4 3 5 5 7 7 9 9 10 3 8 8 7 7 8 9 9 11 13 13 12 10 12 10 11 11 10 10 10 9 10 9 11 10 9 9 9 11 11 11 12 11 6 5 3 5 5 2 3 5 6 6 7 5 5 8 10 9 9 9 8 8 9 9 9 7 8 8 9 11 12 12 12 12 11 11 11 11 11 9 8 7 8 8
7 1 5 7 5 4 4 7 3 4 2 5 9 3 7 1 5 6 8 9 10 2 7 4 3 8 7 8 8 11 12 15 14 12 11 10 12 11 11 9 9 9 8 10 10 8 10 9 10 9 8 8 9 8 10 12 12 9 3 3 4 5 5 3 3 5 7 6 7 9 10 8 9 8 8 8 8 8 8 7 8 9 9 12 12 12 12 11 11 10 10 9 9 8 7 6 5
4 4 5 6 7 5 5 7 3 4 3 1 7 5 8 1 2 6 6 9 2 5 7 6 6 4 3 8 11 13 17 16 14 13 12 12 11 11 10 10 9 8 7 8 8 8 9 9 8 8 7 7 6 6 8 11 14 13 10 4 4 6 4 6 2 3 8 7 8 9 9 9 8 8 9 8 9 8 7 7 8 8 9 9 11 12 12 11 10 10 10 9 9 8 8 6 5
3 6 6 7 8 6 3 6 4 5 5 2 4 6 9 8 2 6 3 6 7 8 10 4 7 0 3 6 14 17 17 16 16 15 13 12 10 9 8 8 8 7 6 7 7 7 8 8 8 7 7 7 7 7 5 8 12 17 16 13 11 7 5 4 4 1 4 7 6 5 5 6 6 6 7 7 8 7 7 4 7 8 9 10 11 11 11 11 11 11 10 9 9 9 8 7 5
5 7 7 7 6 6 1 5 4 7 5 4 7 7 10 10 1 1 5 9 9 10 8 5 6 4 6 11 16 18 17 17 16 15 13 12 10 10 9 7 8 8 8 7 8 8 8 8 7 8 6 7 7 6 6 6 7 10 11 11 10 8 7 4 6 6 6 5 1 4 4 3 6 4 6 7 7 6 6 6 6 6 6 8 9 9 10 11 11 11 11 11 10 9 11 7 6
7 5 6 7 5 1 3 3 3 4 5 8 8 6 9 8 6 3 7 10 12 11 9 10 9 8 9 14 16 16 17 16 16 15 15 13 11 11 10 8 7 8 9 8 7 8 7 7 8 7 8 7 7 7 5 5 7 5 7 10 9 12 11 10 8 7 8 7 5 3 3 5 6 8 6 5 2 6 4 9 7 6 5 6 7 8 9 8 9 9 8 8 8 10 9 5 5
7 5 7 8 4 3 3 3 5 7 8 9 9 8 10 6 4 4 8 9 11 13 11 12 11 12 13 15 16 16 16 16 15 14 13 13 12 11 11 10 9 9 9 8 7 6 7 7 7 7 7 8 6 5 5 6 5 6 5 6 7 6 8 8 8 7 7 8 6 5 5 5 4 3 5 8 4 6 5 8 7 6 6 5 8 8 9 10 12 11 9 8 6 7 7 5 6
6 8 8 4 3 5 3 3 4 6 7 9 9 8 6 3 2 5 2 8 11 11 10 13 15 15 16 16 16 16 16 16 16 14 13 13 12 10 10 10 9 9 8 8 7 6 7 7 6 7 7 6 7 5 5 5 6 5 6 5 5 5 6 5 5 6 6 4 6 5 5 3 4 3 7 6 7 6 7 6 6 6 6 7 9 6 7 8 9 8 7 7 6 7 6 5 4
1 9 9 8 4 7 5 5 4 6 6 8 8 8 7 4 5 6 6 8 7 8 8 3 8 13 18 18 17 16 17 16 15 15 14 12 12 11 10 9 8 8 8 7 8 8 8 7 7 6 6 7 6 4 5 5 5 5 5 5 5 4 5 5 5 5 5 5 5 5 3 4 3 4 3 4 3 4 4 5 5 5 5 5 7 5 5 5 6 5 6 7 5 5 5 4 5
8 9 10 7 7 8 5 6 4 5 7 7 8 5 6 6 5 4 5 6 8 5 4 4 6 12 13 14 15 16 16 16 15 14 14 13 12 11 10 9 9 9 7 7 7 7 7 7 7 7 6 6 6 6 5 4 5 5 4 5 7 5 4 6 6 5 6 6 4 4 4 4 3 3 4 4 3 4 4 4 5 5 5 5 5 5 5 4 5 5 5 5 4 5 5 5 5
10 7 1 5 6 8 7 8 5 7 7 9 7 6 8 5 5 2 6 2 5 4 4 7 9 11 14 15 14 14 15 15 14 13 12 12 11 11 10 9 9 8 8 8 8 7 7 7 7 7 6 6 5 5 5 4 4 3 4 5 5 5 6 5 5 5 5 6 6 5 4 3 3 4 4 4 4 4 4 5 4 4 5 5 5 5 4 4 4 2 3 3 4 5 6 6 6
9 9 7 6 5 6 7 6 6 7 9 8 7 8 5 3 3 1 4 5 3 4 7 9 11 12 13 13 13 14 14 13 13 13 11 10 10 10 9 8 9 9 8 8 6 7 8 6 7 6 6 6 5 3 4 3 4 4 4 4 4 5 5 4 3 4 5 5 6 6 5 4 4 4 4 4 3 4 3 4 4 5 5 6 4 4 3 3 3 3 4 4 4 5 5 6 6
10 8 6 6 6 6 5 7 8 6 4 1 5 5 2 2 1 5 3 5 4 4 7 11 13 13 13 13 14 14 14 14 13 13 11 9 10 11 11 10 10 9 8 8 7 6 7 8 8 7 6 5 5 4 2 2 2 3 4 3 3 5 3 3 4 4 3 4 4 5 5 5 4 3 4 4 4 3 2 3 5 5 5 3 3 3 2 1 1 3 4 4 3 5 5 5 6
0 5 7 8 7 7 3 6 3 3 4 2 5 3 3 3 6 6 3 5 6 5 7 10 13 14 13 13 13 13 14 14 14 12 11 11 11 11 12 10 10 9 9 9 8 7 6 7 7 7 6 3 4 4 3 2 2 2 2 3 4 3 3 2 2 2 3 3 3 3 4 5 3 4 4 5 3 4 4 5 5 4 5 4 4 3 1 2 2 1 2 3 5 4 5 6 6
5 6 8 10 8 4 3 4 4 5 4 3 6 4 2 4 4 6 5 5 6 7 9 11 11 12 12 14 14 12 12 13 12 13 15 15 12 12 13 10 10 9 9 9 7 7 7 7 7 6 6 4 2 3 3 3 2 1 1 1 2 3 4 3 2 1 1 2 2 4 2 3 2 1 3 4 4 4 4 5 4 5 5 3 4 3 4 3 2 3 3 3 4 5 4 4 6
5 5 8 4 4 5 2 2 3 5 4 3 4 4 7 6 3 6 4 4 6 7 9 11 11 12 12 14 13 13 13 13 12 13 13 11 10 10 12 10 10 9 7 9 7 7 8 5 5 6 6 5 4 2 3 2 2 2 1 0 1 1 3 3 4 3 1 1 1 2 3 2 2 2 5 4 2 2 3 3 3 4 5 5 5 5 4 4 4 4 4 4 3 4 5 5 5
6 7 5 7 6 6 6 4 5 4 4 3 4 8 8 7 6 5 4 5 6 7 8 9 9 10 11 12 12 13 12 13 12 11 11 10 10 10 12 10 10 8 8 7 7 8 7 4 4 4 4 5 3 3 2 3 3 2 2 2 1 1 1 2 3 3 3 2 2 2 2 3 4 2 4 4 2 3 3 3 3 4 5 6 4 4 5 5 5 6 8 7 7 6 6 5 5
7 1 5 4 6 6 7 3 6 6 3 3 6 9 5 7 5 4 3 3 6 7 7 9 9 9 10 11 11 12 13 12 12 12 12 11 9 9 11 10 9 8 7 7 8 9 6 5 4 3 3 3 4 3 3 2 2 2 3 3 2 1 1 1 2 4 4 4 3 3 3 1 4 5 4 4 4 3 3 3 3 4 4 6 5 5 5 6 5 6 6 7 7 7 7 6 6
4 6 8 5 7 10 9 5 5 3 5 1 6 6 3 8 5 3 2 3 6 6 7 9 9 10 10 10 11 11 11 12 13 13 11 11 10 9 10 10 9 8 7 7 8 7 7 6 5 4 5 4 4 3 3 2 3 2 2 2 2 0 0 2 2 2 3 4 5 4 6 4 5 6 5 4 3 3 4 3 3 2 4 5 6 5 5 5 5 5 5 6 6 7 7 6 5
5 7 3 4 5 6 8 7 6 5 4 3 6 7 3 6 5 4 2 4 5 6 6 7 8 10 10 9 10 10 11 12 11 12 12 10 9 8 8 10 8 7 6 7 8 7 8 7 7 6 6 5 4 4 4 4 3 3 2 3 2 2 2 1 2 2 2 2 2 4 6 5 2 2 3 3 3 3 4 4 2 2 1 4 5 5 4 3 3 5 5 6 6 5 6 6 4
5 4 1 1 6 5 6 9 5 3 4 5 3 8 4 6 2 4 4 4 6 6 6 6 7 7 9 8 10 11 11 11 12 12 12 11 9 8 7 7 7 7 5 6 7 7 7 7 7 6 5 5 5 5 4 4 3 3 3 3 2 2 2 2 2 2 2 2 2 3 4 5 4 5 5 5 4 3 2 3 5 4 6 5 4 4 4 3 4 4 4 4 5 5 5 5 4
4 5 3 6 4 5 4 5 7 2 3 2 3 6 3 1 2 4 4 5 6 6 6 5 7 7 8 9 10 12 11 11 11 11 12 11 8 9 7 6 6 6 5 6 6 7 6 6 6 7 6 6 5 5 5 3 3 2 2 3 4 3 2 2 2 2 3 3 3 3 3 2 2 3 3 4 3 4 3 3 5 7 5 4 4 6 6 6 6 5 5 4 4 4 2 2 1
2 3 4 1 6 8 7 6 5 5 2 6 4 5 0 0 2 4 4 5 7 7 5 4 5 6 8 9 9 10 11 10 9 11 12 11 9 8 7 7 6 6 6 6 7 7 7 7 7 7 7 7 6 6 5 4 3 3 3 3 3 2 2 3 2 3 2 3 3 2 2 0 1 1 2 2 2 2 3 3 3 5 5 5 5 5 6 7 7 7 6 7 6 5 4 3 3
2 5 5 5 6 3 3 3 5 3 5 5 1 3 4 2 1 3 4 4 7 8 8 7 7 7 8 9 10 10 10 9 9 10 11 12 12 9 8 7 7 7 7 8 8 8 9 8 8 8 7 7 7 6 5 4 4 3 3 3 3 3 2 3 2 3 3 4 3 3 2 2 2 1 0 1 1 1 1 2 4 4 4 4 4 5 4 5 6 5 6 6 7 7 6 5 4
6 6 7 5 6 6 5 4 2 2 6 1 2 5 7 3 1 3 6 7 8 9 9 9 9 9 8 9 10 11 10 8 9 10 11 12 11 10 9 7 9 10 9 9 10 10 9 9 9 8 8 8 7 6 5 4 3 3 3 4 3 4 4 3 3 3 3 3 3 3 2 2 2 2 2 1 1 1 1 2 2 2 3 4 2 2 3 3 5 5 6 5 6 7 6 6 5
6 7 7 6 7 2 5 4 3 2 4 6 1 6 7 4 4 3 6 7 7 8 9 8 9 9 9 9 10 10 10 11 10 10 11 12 13 12 10 9 9 11 10 10 10 10 10 9 9 9 8 8 8 7 5 5 4 2 2 4 2 4 4 4 4 4 3 4 3 3 3 2 2 3 3 3 2 1 1 1 2 2 2 3 4 4 4 3 2 4 6 6 5 5 5 6 6
6 7 5 7 2 4 7 7 6 2 3 6 4 6 7 7 6 6 6 6 3 2 3 5 6 8 10 10 9 9 11 11 13 12 12 12 14 13 12 11 11 11 10 10 11 12 9 10 9 10 9 8 8 7 6 5 5 4 3 4 3 2 4 4 4 4 4 4 4 4 4 3 3 3 3 3 3 3 2 2 1 1 3 4 3 4 4 4 3 4 2 4 4 4 5 4 4
6 6 6 6 3 5 9 6 2 3 3 4 6 8 9 10 9 8 7 5 5 6 6 6 6 7 7 7 8 9 11 12 12 11 12 13 15 15 16 14 12 12 12 12 12 12 9 12 11 11 9 9 8 8 7 6 7 6 5 5 4 5 4 4 4 4 4 4 4 4 4 4 4 4 4 3 4 3 3 2 3 3 3 2 1 3 4 4 2 3 4 4 3 3 4 2 4
6 8 8 6 2 5 5 2 5 6 5 2 4 7 6 3 5 5 6 7 8 7 6 7 6 6 7 9 10 10 10 10 11 13 14 15 15 14 14 14 14 13 13 12 12 12 11 11 10 11 9 9 8 9 8 7 7 7 7 6 6 5 5 4 4 4 4 3 4 4 5 4 4 4 3 4 4 4 3 3 3 3 4 3 3 3 4 4 3 3 3 2 2 1 4 5 4
5 6 11 8 7 5 4 5 5 7 7 6 4 6 2 5 5 6 5 5 8 7 6 3 3 5 7 7 7 8 9 9 10 11 11 12 14 14 15 15 16 15 14 12 11 12 13 12 11 12 10 9 8 9 9 8 8 8 8 7 6 6 5 4 3 4 4 4 4 4 4 4 4 4 4 4 4 4 4 3 3 3 4 3 4 4 4 3 3 3 2 2 2 2 4 1 4
6 5 6 7 8 7 6 6 5 7 4 2 3 6 6 5 6 4 4 5 6 7 7 5 3 2 3 3 4 5 6 8 8 10 12 13 13 15 16 16 15 14 13 12 12 12 14 13 12 12 10 10 9 9 10 9 8 8 8 7 6 5 4 5 5 5 4 4 5 5 5 4 4 5 4 4 4 4 4 4 4 4 4 4 4 4 4 4 4 4 4 3 3 3 3 4 3
3 1 2 7 7 5 5 6 6 4 4 8 7 4 6 7 3 5 4 9 8 9 4 1 3 2 1 2 4 5 6 7 8 9 10 13 14 14 13 13 14 13 13 13 13 13 13 12 12 12 11 11 11 11 10 10 9 8 8 7 6 5 5 5 5 5 5 5 5 4 4 5 5 4 4 5 5 5 4 4 4 4 4 4 4 5 5 6 5 5 4 4 4 4 3 2 2
4 2 2 3 3 4 5 7 7 3 6 7 5 4 7 7 5 6 6 6 5 4 1 1 3 3 3 3 4 5 6 6 8 11 11 10 12 13 13 13 14 14 13 12 12 12 12 11 13 14 13 11 10 12 11 11 10 8 9 8 8 7 6 5 5 6 5 5 6 5 5 4 5 5 5 6 6 6 6 6 5 5 5 5 5 6 6 6 5 5 5 5 5 5 4 4 4
4 6 8 7 7 5 5 4 4 6 6 9 5 4 5 7 4 4 1 4 5 4 2 3 4 5 6 7 6 6 6 6 7 8 9 10 8 9 11 13 13 13 11 13 12 13 13 12 13 14 13 11 11 12 12 12 11 10 9 9 9 8 8 6 6 6 6 6 6 6 5 5 5 6 6 6 6 6 6 6 5 6 5 5 5 5 4 5 5 5 5 5 5 4 4 5 4
7 7 7 7 6 4 7 6 4 6 7 3 5 2 6 8 4 4 4 3 2 3 4 5 7 8 8 7 7 7 7 7 7 7 7 8 9 9 9 11 12 13 12 13 11 12 13 12 12 14 13 13 11 12 13 12 11 11 10 10 10 9 9 7 7 7 7 7 6 6 5 5 5 6 6 6 6 6 6 6 6 6 5 5 5 4 4 5 5 4 4 4 4 5 4 3 4
7 8 7 8 7 3 6 8 7 7 6 6 4 5 5 10 4 5 4 2 2 2 3 5 7 8 8 7 8 6 6 7 6 5 4 5 8 10 11 11 12 13 13 14 13 12 12 12 14 15 15 15 13 13 13 13 12 11 10 10 10 8 9 8 7 6 6 6 6 6 6 6 6 6 6 6 7 7 6 6 6 5 5 5 5 5 5 5 5 5 5 5 5 5 4 4 4
9 8 7 9 8 7 8 7 6 7 3 6 2 2 8 7 4 3 4 3 2 2 2 3 5 5 6 7 6 6 6 7 6 4 2 1 5 7 9 10 10 10 12 13 13 12 12 12 14 15 15 15 13 13 13 13 12 11 10 9 8 8 8 8 7 7 7 6 5 6 6 6 6 6 7 7 7 7 6 6 6 6 6 6 5 5 5 5 5 5 5 5 5 5 5 5 5
8 7 8 8 8 7 7 7 8 7 4 4 6 4 2 9 4 4 5 3 2 2 1 2 2 2 3 5 6 7 7 7 7 6 5 3 3 4 6 7 7 7 9 11 11 12 11 11 13 14 14 14 14 14 13 13 11 11 9 8 8 7 7 7 7 7 8 7 6 7 6 6 6 6 7 7 8 6 6 6 6 7 7 6 6 5 5 5 4 4 5 5 4 4 4 3 4
6 5 6 8 7 4 11 3 7 6 5 4 7 4 2 2 5 4 4 5 5 3 4 2 4 4 4 5 6 7 7 8 7 7 7 6 5 4 5 5 5 7 9 8 10 10 10 12 12 12 13 13 13 13 13 13 12 10 10 10 9 8 7 7 7 7 7 8 7 7 7 7 6 7 7 8 8 7 7 7 7 7 7 7 6 6 5 5 4 4 4 4 4 3 4 4 3
3 7 10 6 4 6 5 2 2 0 5 9 5 5 5 5 5 7 7 7 6 6 5 5 5 5 5 6 7 7 8 8 8 8 7 7 7 6 6 4 4 6 7 8 9 10 11 12 10 11 11 10 11 11 11 11 10 10 10 10 9 9 9 9 8 9 9 8 8 8 7 8 7 7 7 8 9 8 8 8 7 8 7 7 6 6 6 6 5 4 4 4 4 4 3 4 3
3 8 6 3 2 6 5 8 3 5 9 7 5 6 10 7 5 9 9 8 8 8 6 7 5 5 6 7 7 7 8 9 10 10 9 9 8 8 7 6 4 3 4 6 7 7 9 10 9 10 10 9 10 10 10 10 11 10 9 10 11 10 9 10 9 9 9 8 8 8 7 7 8 8 8 8 9 9 8 9 8 8 7 7 7 6 6 7 6 5 5 5 4 4 3 3 3
9 6 5 7 5 8 7 4 10 8 9 8 9 11 13 10 5 10 11 11 11 9 8 8 7 6 7 7 7 8 8 8 9 10 10 9 9 10 8 8 8 6 5 4 2 3 4 5 6 7 9 9 8 8 9 8 10 8 9 10 10 10 10 9 9 9 9 9 10 9 9 8 8 9 9 9 10 10 9 9 8 8 7 7 7 6 6 6 6 6 6 5 5 4 3 3 3
6 4 8 3 7 9 8 6 8 8 10 9 9 10 8 8 7 12 12 13 12 11 9 8 7 6 5 5 6 7 8 8 8 9 10 10 10 11 10 9 10 9 8 7 5 2 1 3 4 4 5 7 8 8 8 9 9 9 9 8 10 10 10 9 9 9 9 10 11 11 10 10 9 9 9 11 10 11 10 10 9 8 8 8 7 7 6 6 6 5 5 5 5 5 5 4 3
7 7 9 6 7 2 7 8 10 10 9 10 9 10 9 5 1 7 10 12 12 11 10 8 6 6 6 6 6 6 8 7 8 9 10 11 11 11 11 10 10 10 9 8 7 6 4 1 2 4 5 5 6 7 8 8 8 10 10 10 10 10 10 9 9 8 9 9 10 10 10 10 10 10 10 11 11 11 11 11 11 10 10 9 8 7 6 6 5 5 4 5 6 5 5 4 3
8 7 9 9 10 9 11 12 8 9 11 9 9 11 10 4 3 4 8 10 10 9 10 9 8 7 6 6 6 5 6 7 8 9 10 10 11 12 11 11 11 11 11 10 9 9 9 5 2 1 1 4 6 7 7 7 8 8 10 11 11 10 9 9 9 9 9 9 9 9 10 10 11 11 12 12 12 11 11 11 10 11 10 10 9 8 7 6 5 6 6 4 5 5 4 4 3
Wind_Direction
256 234 274 265 264 257 246 211 243 172 228 237 250 208 102 168 8 264 221 191 222 93 248 143 195 157 187 173 180 103 26 227 11 241 51 101 146 129 137 133 139 133 139 135 133 141 141 136 135 133 134 138 135 130 129 130 128 124 121 118 119 119 118 120 122 122 126 129 130 133 135 139 143 143 141 143 147 143 140 136 134 134 136 139 141 143 148 143 145 138 131 133 130 124 125 129 125
228 255 247 248 243 220 198 229 268 225 217 255 243 249 100 142 224 239 236 226 5 66 165 173 169 167 34 181 118 137 87 46 51 81 100 113 130 137 131 138 140 135 138 135 138 134 139 141 137 137 140 142 138 135 137 137 133 128 127 124 124 125 124 123 126 128 129 132 133 134 135 137 135 135 136 136 131 135 136 134 133 136 139 142 143 146 145 147 142 140 137 135 134 131 130 124 126
234 239 208 216 224 239 345 215 249 239 248 242 224 162 93 229 233 185 24 1 86 104 150 136 134 153 162 174 186 214 109 73 83 87 103 139 139 141 140 131 134 131 137 132 134 134 133 142 138 141 147 146 142 141 143 143 141 138 133 132 130 128 129 130 130 132 135 136 138 137 137 136 134 134 132 126 119 119 122 131 134 136 142 143 148 147 149 150 148 150 143 139 137 138 127 127 128
277 262 252 199 191 226 222 210 249 266 250 263 286 114 207 282 39 7 93 107 108 129 140 145 176 38 260 185 90 82 104 114 84 111 122 160 141 142 142 134 130 129 134 132 130 128 142 138 145 148 150 148 147 147 149 151 150 145 141 138 136 133 133 134 135 137 139 141 141 141 140 137 136 134 131 128 121 122 130 133 136 139 141 143 147 149 149 153 154 151 151 144 138 131 128 129 128
246 215 249 240 264 203 233 239 266 252 251 255 256 82 77 72 49 102 114 120 125 169 201 125 121 139 3 43 62 254 88 93 107 124 129 109 122 141 141 139 131 131 132 132 130 132 131 142 151 154 147 149 152 150 149 152 154 150 147 144 141 140 140 140 139 141 141 140 140 141 139 139 137 136 133 128 118 117 123 131 131 134 141 145 145 149 152 155 153 153 145 140 140 135 130 127 128
233 211 201 253 253 0 268 233 223 236 263 4 280 70 68 71 91 102 112 143 148 198 192 189 315 167 183 46 4 101 110 172 129 126 131 134 135 140 137 146 132 127 125 125 132 130 138 135 158 139 142 149 153 149 148 151 154 155 152 148 143 140 141 143 143 143 141 141 141 141 141 140 138 134 129 125 119 113 115 112 122 135 138 142 142 151 151 143 140 139 142 142 134 129 131 123 119
182 199 183 219 235 222 247 247 252 249 109 286 293 62 90 99 97 136 141 154 170 176 181 204 194 138 152 136 76 47 357 84 159 127 137 134 139 144 144 143 129 120 123 126 129 129 133 144 148 143 141 152 153 154 152 152 155 158 156 151 145 144 142 141 146 143 143 142 143 143 143 143 139 132 129 126 128 126 127 128 134 139 140 140 147 152 147 146 146 150 145 134 127 120 110 111 115
258 253 167 220 203 210 229 251 264 252 106 252 19 97 110 92 358 281 158 228 158 211 158 137 185 257 67 213 219 74 116 89 102 123 123 134 142 141 146 137 130 125 121 123 121 123 129 148 157 149 144 149 158 157 156 152 154 159 156 153 150 148 145 148 149 148 145 145 144 145 147 147 141 135 132 133 136 137 137 139 143 139 142 146 149 149 151 149 150 141 138 136 129 124 114 108 109
192 250 103 255 242 213 251 243 258 170 309 200 210 306 31 333 320 280 226 229 123 234 167 170 164 232 120 137 88 108 109 116 112 121 129 133 144 144 146 139 130 126 126 124 121 129 136 147 157 157 154 154 146 158 157 156 155 156 157 156 153 152 154 152 154 153 147 146 146 147 149 148 142 139 140 139 143 147 147 146 148 146 145 150 150 152 153 154 145 143 143 139 132 126 119 114 112
191 247 182 243 267 239 238 223 239 208 234 216 229 194 207 266 266 269 263 206 203 193 135 130 209 276 132 123 127 148 124 123 125 125 136 144 139 142 138 132 128 129 127 125 125 128 133 143 156 154 162 159 155 145 162 156 155 152 153 155 153 157 161 161 159 155 152 148 147 149 150 148 147 145 146 146 147 148 150 142 150 152 149 150 153 155 154 139 140 145 144 144 134 125 124 120 112
207 201 313 243 229 248 237 236 221 164 226 221 222 247 265 259 267 262 252 254 127 222 136 206 171 137 154 126 100 94 125 132 140 133 144 148 136 134 129 131 127 128 129 124 129 128 136 149 154 154 158 163 158 153 147 137 144 149 149 148 155 167 168 161 161 159 153 151 149 147 146 149 150 151 152 150 147 146 142 142 158 154 149 150 152 154 150 148 148 151 147 147 136 133 126 121 118
234 215 182 240 246 247 263 279 164 255 231 242 235 115 85 281 251 253 241 236 206 217 196 200 139 158 133 134 132 139 140 144 128 133 144 144 137 133 132 125 126 124 122 125 127 133 134 138 152 152 153 157 158 156 144 128 121 123 139 149 162 172 165 160 166 164 157 155 146 142 145 152 157 155 155 151 152 152 150 145 141 148 154 145 144 147 146 150 151 150 151 146 143 138 131 126 127
258 220 225 247 260 253 297 270 253 293 272 212 191 82 16 283 251 253 254 255 224 208 206 195 117 208 151 137 124 143 150 137 133 140 146 139 137 140 127 125 124 125 129 130 130 127 136 141 142 156 147 153 156 158 139 112 84 130 129 140 165 167 167 174 168 166 161 151 146 145 152 158 159 156 151 148 152 158 157 141 146 157 158 146 145 145 146 149 148 151 149 146 146 138 132 126 131
245 238 254 248 42 270 262 263 271 250 216 105 72 57 15 301 271 261 257 240 229 226 146 146 173 198 112 119 150 157 149 143 141 149 145 136 138 140 132 131 133 128 134 132 124 131 133 136 136 137 146 159 154 156 137 153 136 138 111 136 112 138 164 182 172 157 145 159 161 154 155 160 159 153 151 150 154 160 159 147 145 153 155 148 146 146 147 146 147 146 148 151 141 136 132 133 135
250 208 254 266 261 240 222 254 272 219 221 124 76 346 323 173 296 257 246 236 223 178 99 165 196 205 153 201 162 163 153 147 146 148 136 140 140 138 137 131 133 135 139 141 136 136 131 132 131 140 140 146 153 159 154 155 172 167 100 22 199 183 168 120 189 154 138 196 172 162 157 152 147 153 146 152 151 153 160 152 146 148 152 147 146 146 145 144 144 142 141 142 140 134 131 126 124
258 222 242 247 243 245 166 238 218 265 120 182 64 350 324 27 239 266 238 252 87 136 181 165 220 274 114 202 163 148 144 142 142 139 138 136 135 132 131 134 138 134 138 137 143 142 143 144 141 136 141 145 149 142 142 146 157 159 167 153 221 188 162 116 99 133 167 183 190 166 157 153 163 160 159 162 160 155 155 180 144 141 142 147 150 144 145 144 140 139 139 137 134 132 128 125 111
230 259 231 231 249 217 168 238 192 222 71 133 66 359 340 325 127 267 311 257 216 173 192 156 167 161 194 100 133 135 144 139 138 139 142 140 138 136 139 137 135 134 140 142 144 144 146 142 151 148 145 142 134 124 134 141 149 159 154 177 204 194 174 152 132 116 182 177 179 160 159 185 158 183 158 182 157 171 163 146 151 140 141 156 147 146 148 146 144 144 142 138 139 137 134 124 115
213 219 236 235 247 227 225 247 239 24 269 350 344 7 342 321 121 166 217 203 220 166 177 130 122 93 87 114 130 137 143 144 145 148 151 144 146 145 145 141 144 147 152 150 151 148 142 143 137 139 141 140 130 149 142 151 141 162 162 166 183 179 169 214 174 180 175 171 175 166 186 213 197 145 188 161 172 157 163 148 157 153 141 143 141 147 151 154 151 147 148 148 145 148 152 175 159
224 227 243 253 217 220 19 2 321 308 321 325 326 353 336 331 293 134 233 185 182 174 176 169 152 124 118 135 136 143 147 150 156 155 154 153 156 150 145 149 152 150 156 154 153 151 142 139 145 147 147 140 143 138 142 138 150 152 153 157 160 173 181 190 182 192 199 147 200 195 169 217 228 155 205 152 160 148 137 163 165 154 143 133 134 140 151 156 151 141 141 145 148 160 189 200 193
220 257 229 240 267 315 301 289 285 292 315 305 321 339 318 14 285 84 248 185 184 189 172 177 170 151 146 140 147 147 152 153 158 158 156 160 159 152 149 153 154 160 157 159 151 149 156 156 156 148 157 154 155 148 147 152 155 161 147 155 156 163 170 181 192 181 220 156 176 209 199 210 184 189 88 152 148 184 161 177 160 143 150 164 151 158 151 154 143 146 145 138 168 195 218 204 209
144 235 245 267 46 283 238 249 271 294 303 308 310 324 318 72 312 255 246 196 199 208 189 184 177 158 148 150 150 155 157 158 161 160 160 160 160 160 158 157 162 161 158 153 151 158 158 154 153 157 158 158 159 161 167 154 156 169 156 152 146 165 162 166 182 188 185 166 173 184 202 185 179 196 166 170 201 165 163 179 170 184 181 184 182 194 181 158 177 171 159 176 204 218 226 215 241
233 235 256 294 274 260 269 277 315 301 309 293 296 303 352 325 245 242 233 219 196 207 161 190 172 160 153 154 157 158 161 161 160 163 163 160 160 162 153 152 156 162 159 168 165 163 164 164 164 149 158 157 154 178 177 153 166 159 159 157 145 174 162 170 180 197 166 174 185 191 182 186 182 179 171 191 179 169 177 173 183 184 188 201 187 203 213 182 198 177 176 183 209 221 221 214 213
241 219 245 252 275 285 310 290 301 305 293 289 300 345 314 291 284 232 234 240 44 38 93 131 162 150 148 150 153 161 162 163 165 166 164 162 163 159 158 154 160 168 174 170 166 166 163 165 158 155 165 153 169 174 159 166 185 168 166 169 158 165 190 172 192 193 178 173 192 191 190 195 181 171 168 186 185 188 187 185 196 179 196 206 195 219 217 188 206 185 185 191 198 220 224 211 203
250 269 73 256 259 262 275 277 283 269 283 286 304 308 286 290 257 140 228 118 52 73 149 123 133 149 150 152 161 162 163 164 165 164 163 162 160 155 156 159 167 166 181 164 171 164 169 162 159 166 154 159 170 178 164 170 173 174 168 168 184 160 179 173 181 192 174 176 193 191 207 200 180 187 176 179 187 200 193 195 199 194 202 206 200 216 221 210 211 199 188 191 205 212 220 218 221
234 247 249 268 272 268 264 277 287 284 277 280 278 271 276 281 322 206 226 134 73 133 150 140 142 149 154 155 160 161 164 162 165 163 164 162 159 152 157 165 171 179 177 161 170 169 168 157 164 167 149 169 154 179 168 173 161 178 175 188 187 168 179 182 172 158 181 178 189 201 195 197 200 200 189 180 192 186 192 195 203 209 215 207 192 217 220 204 201 177 174 177 198 217 224 223 221
218 254 272 266 260 266 292 291 275 273 282 299 252 245 243 217 174 220 161 117 123 129 144 150 148 154 160 160 163 165 165 166 165 167 163 154 156 166 171 176 178 184 175 166 172 165 164 158 171 157 162 163 147 167 145 161 176 193 189 183 157 172 171 167 162 179 169 171 168 192 193 199 208 209 175 198 184 162 176 214 212 213 222 218 199 206 225 228 215 175 188 188 209 207 221 226 237
98 259 262 273 283 291 306 281 262 248 265 246 256 167 153 156 227 146 140 133 137 145 147 153 159 160 162 162 165 169 168 169 170 162 162 168 170 181 181 183 185 178 174 166 168 162 147 167 164 155 149 152 159 162 149 144 169 217 194 171 180 157 128 156 175 168 168 169 154 173 187 201 218 170 191 203 155 155 194 206 220 224 218 211 205 178 134 223 149 159 226 181 210 215 213 217 225
262 277 283 264 252 257 267 236 239 218 171 202 237 151 164 138 237 55 115 145 166 161 156 162 166 162 162 162 165 168 174 172 172 171 176 176 179 184 181 186 182 171 174 164 166 151 156 173 152 152 140 155 226 146 150 154 187 176 174 187 186 136 155 154 148 164 182 154 162 153 165 190 167 82 209 210 185 185 206 214 208 215 216 237 207 178 184 205 166 154 149 151 188 208 228 227 230
277 282 264 239 177 188 147 164 137 225 111 215 255 192 183 183 108 73 106 152 178 176 166 169 167 161 162 159 167 175 182 176 176 180 184 185 184 183 180 180 174 172 164 160 154 152 157 165 145 157 145 153 184 185 137 150 143 151 119 164 175 186 185 161 166 166 157 101 106 152 161 158 104 126 261 233 204 210 231 224 223 217 207 216 225 189 179 192 164 155 173 182 154 214 199 220 234
263 241 276 240 191 170 112 144 153 169 74 296 242 214 180 156 94 92 122 165 187 179 176 171 167 164 163 166 172 178 181 178 180 184 181 186 183 179 176 174 174 171 156 156 151 158 153 152 152 153 149 164 183 168 150 180 142 127 147 132 114 211 217 190 156 146 151 139 123 93 184 155 172 165 195 236 200 167 222 234 215 216 215 206 201 189 191 195 183 177 177 184 180 192 208 202 221
237 116 242 259 203 132 96 99 153 132 86 247 222 256 161 125 109 97 122 188 189 187 180 174 168 170 166 171 178 179 178 182 180 182 177 180 175 175 175 170 171 174 156 156 163 158 157 154 154 145 155 171 170 155 190 136 144 151 155 156 142 183 150 201 151 140 156 161 147 138 96 172 169 187 195 231 225 203 212 236 205 211 210 204 193 190 204 198 195 191 182 193 176 190 198 207 219
226 212 202 172 237 113 100 74 42 138 129 256 254 242 223 104 99 103 128 185 208 202 182 180 178 177 174 175 181 182 178 180 178 176 171 175 177 169 175 173 172 170 160 152 157 160 165 160 169 156 166 168 180 154 150 127 125 143 93 96 112 97 187 147 142 152 151 144 153 159 169 234 205 207 198 206 242 196 198 214 251 213 206 204 205 197 206 206 202 204 197 213 185 195 197 201 225
199 254 126 205 232 115 146 101 95 71 124 146 244 275 211 150 95 118 144 194 205 210 188 182 186 180 184 186 186 189 173 176 175 176 170 174 175 172 175 175 178 172 158 158 160 162 167 161 174 177 173 166 162 151 140 126 137 130 121 98 96 143 127 100 116 141 137 140 139 127 139 158 174 170 183 192 220 209 205 209 187 214 247 229 209 212 216 213 208 211 210 213 216 209 205 206 201
193 233 154 150 248 154 168 119 89 96 272 161 177 248 261 69 148 120 168 204 204 217 197 187 188 189 192 195 192 190 184 177 179 177 173 180 176 171 172 171 172 165 154 164 167 173 173 169 173 174 163 162 158 148 141 149 145 133 142 129 108 110 103 107 100 107 105 104 111 119 135 148 165 173 188 188 203 229 226 206 150 241 212 217 203 196 208 217 228 236 220 224 222 220 212 210 200
183 196 192 180 197 264 24 184 73 320 155 249 148 251 277 217 201 185 173 196 218 215 211 199 198 198 198 203 204 199 193 185 179 175 175 174 174 170 169 161 164 160 157 166 167 172 172 169 164 152 156 150 145 139 134 127 126 135 111 146 143 147 134 98 99 95 88 104 115 104 92 113 133 147 153 162 175 190 204 209 177 212 194 177 201 199 196 200 213 223 222 230 249 252 226 205 196
307 219 233 199 205 182 214 89 64 6 282 220 202 269 11 67 186 161 174 198 214 217 206 218 219 211 209 211 210 208 204 187 170 173 172 174 176 169 174 164 166 165 160 169 173 174 176 165 165 158 161 153 149 156 166 176 180 171 155 159 150 118 112 114 99 108 112 93 74 73 94 222 128 164 142 111 158 170 179 183 190 184 182 189 201 201 201 195 204 211 222 228 224 236 241 219 198
304 260 254 222 254 156 110 95 61 360 292 229 351 263 251 275 50 162 174 186 217 217 211 215 218 222 219 215 215 215 209 191 161 165 167 175 179 167 170 168 167 166 168 173 179 181 181 178 168 167 161 161 172 175 180 183 177 163 161 162 141 143 124 114 102 75 72 74 71 95 100 93 95 85 268 192 163 209 202 179 173 179 171 187 203 215 205 196 192 199 212 217 222 222 221 210 203
246 229 234 215 214 237 106 93 86 70 301 186 168 269 253 229 267 174 167 198 213 215 214 215 223 226 229 228 224 219 211 190 160 165 172 176 184 173 170 174 173 176 180 180 185 182 182 181 177 169 166 170 180 183 172 172 175 176 169 155 148 141 147 157 122 112 89 88 88 73 68 66 73 95 81 69 199 201 177 189 202 180 209 169 196 192 199 178 197 197 195 199 216 214 221 207 197
224 237 218 246 210 234 113 119 143 96 278 261 96 278 268 234 238 188 197 204 211 212 220 223 224 227 230 232 231 227 215 205 181 177 175 179 185 181 178 182 186 190 179 182 183 180 179 181 182 172 175 174 178 182 179 168 158 138 187 119 152 116 63 43 70 83 104 105 86 86 72 66 92 95 95 90 92 115 105 175 167 189 190 146 151 146 147 152 193 212 198 206 197 210 231 196 187
210 217 231 221 85 210 189 150 145 155 296 318 322 287 271 256 229 226 202 218 160 138 236 241 249 239 232 234 231 230 224 214 204 189 183 182 185 186 187 186 186 185 180 180 181 182 178 185 184 177 173 179 177 180 185 151 142 133 105 119 91 67 102 104 98 109 103 107 98 66 73 80 73 79 92 112 105 100 114 120 110 160 130 133 144 132 127 123 171 181 247 222 201 201 218 178 185
203 249 238 243 172 217 288 103 195 130 175 255 271 256 252 229 221 205 187 192 213 209 209 223 231 249 261 265 260 245 238 226 221 204 190 186 188 191 192 189 180 184 185 183 181 182 179 184 183 176 173 178 179 173 169 145 140 143 134 129 124 112 122 135 145 130 125 110 108 107 95 88 93 87 82 67 89 106 115 93 92 92 86 81 124 125 106 100 94 62 126 168 201 230 200 168 180
187 208 247 265 227 274 215 244 252 230 202 134 307 279 260 125 225 234 146 187 205 191 210 210 206 210 225 239 246 249 245 243 237 221 205 196 195 192 192 187 186 188 188 186 181 181 177 181 177 174 173 176 179 175 170 166 169 160 159 164 162 159 152 161 160 143 145 141 105 111 111 98 86 88 84 85 84 99 108 124 118 111 95 90 80 86 91 96 114 132 94 93 138 201 227 177 155
231 184 204 223 243 227 232 230 232 238 253 128 280 281 288 173 187 167 174 190 195 164 185 149 190 222 224 232 237 240 247 245 243 244 232 210 200 195 193 192 190 190 190 179 177 179 178 178 174 174 174 174 178 180 177 180 177 172 174 177 168 163 153 145 112 123 124 110 117 120 109 112 111 98 88 87 89 90 101 106 109 99 104 95 78 68 69 64 64 52 46 86 74 55 357 230 157
230 85 194 210 211 209 220 250 243 277 346 219 226 255 276 271 243 123 164 222 207 187 155 158 159 190 259 279 269 266 264 258 254 242 234 229 214 205 199 193 191 192 179 175 175 175 178 178 173 175 176 175 176 181 184 190 184 179 180 183 168 167 155 132 140 130 117 119 118 128 128 126 119 107 104 99 102 103 99 102 105 99 106 108 112 100 98 93 93 80 58 50 33 27 31 26 38
41 66 186 209 215 208 221 233 252 286 304 275 201 195 249 245 211 148 193 222 209 209 153 157 113 127 153 282 294 298 287 279 267 256 242 229 224 215 206 194 191 184 180 177 178 175 175 175 173 177 179 178 176 178 186 192 193 183 183 180 172 162 145 141 146 141 136 130 130 128 127 118 109 99 95 102 104 105 105 97 93 91 85 96 104 104 94 90 81 76 82 67 59 59 50 36 13
103 151 184 165 186 191 233 251 258 208 253 264 245 192 278 272 215 208 155 234 187 144 39 13 34 32 25 359 325 306 294 280 268 261 257 246 229 220 209 197 184 184 180 173 175 171 173 173 176 181 183 182 178 179 187 193 196 189 189 185 176 163 157 149 158 146 146 151 139 138 137 138 127 121 115 113 113 107 103 104 99 94 88 74 72 82 94 93 93 92 81 79 82 89 75 54 52
125 190 183 185 194 208 214 251 275 271 242 252 134 169 277 277 239 231 223 45 8 345 330 5 348 351 353 359 335 334 323 310 290 273 255 243 239 226 207 196 183 174 172 171 173 174 174 174 179 185 185 185 182 182 188 193 196 195 194 188 182 169 164 162 164 160 158 165 153 153 154 141 139 127 127 125 119 117 112 104 104 104 98 96 96 100 95 98 99 98 90 86 82 79 83 84 81
198 202 218 224 219 201 231 221 215 245 256 117 123 154 208 254 205 141 86 80 40 340 326 328 333 340 349 347 343 338 337 322 307 286 265 231 210 204 196 193 183 175 168 172 173 175 175 176 179 183 184 188 184 185 188 195 198 198 200 192 186 176 168 172 179 173 171 171 162 160 157 151 148 141 143 137 136 129 125 119 117 115 109 106 101 97 103 104 105 102 102 99 95 90 91 93 89
221 226 231 243 233 226 240 224 224 222 254 111 109 156 218 230 304 105 106 102 67 17 332 331 328 333 344 343 348 350 346 339 325 321 284 231 201 187 185 190 187 180 177 177 175 175 176 178 181 179 186 190 187 186 190 195 199 200 202 197 192 181 179 179 183 183 180 179 171 169 165 167 158 161 157 154 148 148 137 138 137 126 119 111 106 103 95 95 97 95 97 99 92 86 80 82 84
217 228 229 236 250 235 249 257 265 276 160 104 142 154 256 283 118 71 99 79 55 36 350 344 340 334 343 346 359 5 9 4 354 357 3 208 191 186 184 186 185 184 179 177 175 175 177 180 177 191 192 190 186 187 192 196 202 203 203 203 196 187 185 183 187 188 185 192 180 175 179 176 173 172 165 164 158 161 152 141 136 127 121 122 118 110 110 109 109 108 106 97 96 91 92 94 93
226 241 242 246 257 261 257 248 253 243 274 110 133 220 234 240 95 87 91 103 113 119 74 78 343 8 360 14 15 22 22 22 17 29 36 67 111 142 156 167 166 173 176 176 176 179 181 180 191 196 192 189 189 188 190 197 201 203 205 206 203 199 190 189 194 192 187 191 188 180 187 181 181 176 170 164 162 164 146 142 138 136 135 130 126 120 115 111 104 100 98 97 90 92 95 83 82
222 237 263 252 245 249 260 325 305 314 298 202 161 254 243 316 117 116 135 133 135 133 117 124 85 57 46 38 35 29 31 32 29 40 49 62 91 106 119 137 154 164 167 171 176 180 182 188 196 198 194 186 189 189 193 195 198 198 202 202 202 200 200 196 198 194 189 192 191 189 188 185 184 173 169 161 169 165 158 150 151 146 145 144 139 137 133 121 119 113 105 102 100 100 102 104 106
128 231 232 259 333 256 270 167 82 103 261 266 260 229 224 115 169 151 153 154 142 145 139 119 92 77 61 50 40 38 39 41 39 41 42 49 71 86 100 120 154 158 168 175 181 186 188 193 193 192 192 186 189 191 194 194 197 200 201 203 203 201 200 201 197 189 188 188 194 197 195 188 179 176 166 165 172 171 167 165 160 155 156 154 150 146 138 133 136 124 112 112 106 101 89 78 62
230 239 243 121 267 290 246 268 185 226 257 258 231 236 250 222 240 157 166 171 156 150 144 121 102 87 73 53 45 40 45 49 55 56 51 43 50 64 76 85 91 128 160 174 187 187 195 202 197 187 191 189 185 186 193 194 195 200 203 211 214 213 207 203 201 192 190 190 193 198 200 189 182 177 169 169 174 174 173 174 168 166 162 161 158 155 151 146 146 134 131 127 114 119 120 108 98
262 296 56 243 219 227 208 257 255 254 253 263 240 229 250 242 233 154 177 182 165 157 147 140 118 94 79 67 54 48 46 50 52 53 55 49 47 52 65 78 78 76 80 92 134 172 198 210 206 195 192 195 187 188 198 197 199 200 210 215 215 216 218 214 207 199 192 192 195 198 198 196 184 178 173 172 176 178 179 179 178 173 168 167 166 162 160 160 155 140 146 135 140 141 122 119 101
237 263 248 230 278 255 250 230 268 263 265 262 255 247 253 243 250 183 187 181 169 156 159 134 115 93 79 68 52 48 44 44 51 57 59 60 57 54 46 59 74 72 69 74 77 54 283 234 226 212 200 197 202 200 198 205 207 214 217 219 219 221 222 220 212 202 199 199 196 197 196 195 191 184 180 178 183 183 182 183 182 179 176 174 172 170 176 163 166 154 156 143 136 147 139 138 129
194 218 239 208 236 339 292 261 249 258 264 265 279 272 258 271 220 199 193 178 165 164 153 138 123 104 90 72 63 54 52 48 50 57 65 67 68 70 67 59 62 61 58 59 69 72 57 19 243 225 217 218 211 212 209 211 212 219 223 223 224 227 227 227 226 214 212 208 204 199 197 194 190 192 185 184 189 188 188 188 186 184 183 180 176 177 177 174 174 161 150 139 148 151 151 136 143
302 274 257 251 251 239 243 254 231 247 259 254 257 266 273 53 345 197 165 156 154 157 149 140 130 118 102 88 68 58 64 59 57 60 63 65 69 74 78 78 73 71 63 56 54 61 55 34 45 120 206 233 226 222 225 230 225 222 224 229 233 234 234 231 227 224 222 220 209 205 200 194 194 192 190 190 193 191 193 192 192 190 188 186 184 180 179 183 178 163 152 153 157 155 148 136 147